N4MRV-1 Weather Reports


time (UTC)temp
F
wind
direction
speed
knots
gust
knots
rain 1hr
in
rain 24hr
in
rain mn
in
humidity
%
barometer
mb
20260831131516 75 270 0.9 4.3 0.00 0.00 0.00 91 1019.9
20260831130016 74 0.0 1.7 0.00 0.00 0.00 93 1019.8
20260831124516 73 0.0 1.7 0.00 0.00 0.00 94 1019.9
20260831123016 72 0.0 2.6 0.00 0.00 0.00 94 1019.8
20260831121516 72 0.0 0.9 0.00 0.00 0.00 94 1019.8
20260831120036 71 0.0 0.0 0.00 0.00 0.00 93 1019.7
20260831114516 71 0.0 0.0 0.00 0.00 0.00 92 1019.5
20260831113016 71 0.0 0.0 0.00 0.00 0.00 92 1019.5
20260831111516 71 0.0 0.0 0.00 0.00 0.00 92 1019.1
20260831110016 71 0.0 0.0 0.00 0.00 0.00 91 1019.2
20260831104516 72 0.0 0.0 0.00 0.00 0.00 91 1019.1
20260831103016 72 0.0 0.0 0.00 0.00 0.00 91 1019.2
20260831101516 72 0.0 0.0 0.00 0.00 0.00 91 1019.1
20260831100016 72 0.0 0.0 0.00 0.00 0.00 91 1018.8
20260831094516 72 0.0 0.0 0.00 0.00 0.00 90 1018.8
20260831093016 72 0.0 0.0 0.00 0.00 0.00 90 1018.7
20260831091516 73 0.0 0.0 0.00 0.00 0.00 90 1018.8
20260831090036 73 0.0 0.0 0.00 0.00 0.00 90 1018.8
20260831084516 73 0.0 0.0 0.00 0.00 0.00 90 1018.9
20260831083016 73 0.0 0.0 0.00 0.00 0.00 90 1018.9
20260831081516 73 0.0 0.0 0.00 0.00 0.00 90 1018.8
20260831080016 73 0.0 0.0 0.00 0.00 0.00 90 1018.7
20260831074536 73 0.0 0.0 0.00 0.00 0.00 90 1018.7
20260831073015 73 0.0 0.0 0.00 0.00 0.00 89 1018.6
20260831071535 73 0.0 0.0 0.00 0.00 0.00 89 1018.7
20260831070016 73 0.0 0.0 0.00 0.00 0.00 89 1018.9
20260831064516 73 0.0 0.0 0.00 0.00 0.00 89 1018.8
20260831063016 74 0.0 0.0 0.00 0.00 0.00 89 1018.9
20260831061536 74 0.0 0.0 0.00 0.00 0.00 89 1019.0
20260831060015 74 0.0 0.0 0.00 0.00 0.00 88 1019.0
20260831054516 74 0.0 0.0 0.00 0.00 0.00 88 1019.1
20260831053015 75 0.0 0.0 0.00 0.00 0.00 88 1019.3
20260831051515 75 0.0 0.0 0.00 0.00 0.00 88 1019.4
20260831050015 75 0.0 0.0 0.00 0.00 0.00 87 1019.5
20260831044515 76 0.0 0.0 0.00 0.00 0.00 87 1019.6
20260831043015 76 0.0 0.0 0.00 0.00 0.00 86 1019.7
20260831041535 76 0.0 0.0 0.00 0.00 0.00 86 1019.7
20260831040015 76 0.0 0.0 0.00 0.00 0.00 86 1019.7
20260831034516 76 0.0 0.0 0.00 0.00 0.00 86 1019.7
20260831033016 76 0.0 0.0 0.00 0.00 0.00 86 1019.8
20260831031536 76 0.0 0.0 0.00 0.00 0.00 85 1019.8
20260831030016 77 0.0 0.0 0.00 0.00 0.00 85 1019.9
20260831024516 77 0.0 0.0 0.00 0.00 0.00 85 1019.8
20260831023016 77 0.0 0.0 0.00 0.00 0.00 85 1019.8
20260831021516 77 0.0 0.0 0.00 0.00 0.00 84 1019.8
20260831020056 77 0.0 0.0 0.00 0.00 0.00 84 1019.8
20260831014556 77 0.0 0.9 0.00 0.00 0.00 82 1019.9
20260831013016 78 0.0 0.0 0.00 0.00 0.00 82 1019.9
20260831011515 78 0.0 0.0 0.00 0.00 0.00 80 1020.0
20260831010016 79 0.0 0.9 0.00 0.00 0.00 80 1019.9
20260831004536 80 0.0 0.0 0.00 0.00 0.00 78 1019.7
20260831003016 80 0.0 0.0 0.00 0.00 0.00 77 1019.3
20260831001516 81 0.0 0.0 0.00 0.00 0.00 76 1019.1
20260831000015 82 0.0 0.0 0.00 0.00 0.00 75 1019.0
20260830234516 83 0.0 0.0 0.00 0.00 0.00 75 1019.2
20260830233015 83 0.0 0.0 0.00 0.00 0.00 74 1019.3
20260830231536 84 0.0 0.0 0.00 0.00 0.00 73 1019.3
20260830230015 84 0.0 0.0 0.00 0.00 0.00 71 1019.3
20260830224515 85 0.0 0.0 0.00 0.00 0.00 70 1019.1
20260830221515 85 0.0 0.9 0.00 0.00 0.00 68 1019.0
20260830220015 86 0.0 1.7 0.00 0.00 0.00 68 1019.1
20260830214515 86 0.0 2.6 0.00 0.00 0.00 68 1019.1
20260830213015 86 0.0 1.7 0.00 0.00 0.00 68 1019.0
20260830211515 86 0.0 2.6 0.00 0.00 0.00 65 1018.9
20260830210035 86 315 0.9 2.6 0.00 0.00 0.00 66 1019.0
20260830204515 86 338 0.9 2.6 0.00 0.00 0.00 66 1018.9
20260830203015 86 180 0.9 3.5 0.00 0.00 0.00 65 1019.2
20260830201517 86 180 0.9 2.6 0.00 0.00 0.00 65 1019.3
20260830200017 86 315 0.9 4.3 0.00 0.00 0.00 65 1019.5
20260830194517 86 315 0.9 2.6 0.00 0.00 0.00 66 1019.8
20260830193017 86 315 0.9 2.6 0.00 0.00 0.00 65 1020.1
20260830191537 86 113 0.9 1.7 0.00 0.00 0.00 68 1020.4
20260830190017 85 0 0.9 2.6 0.00 0.00 0.00 68 1020.6
20260830184517 85 203 0.9 6.1 0.00 0.00 0.00 67 1020.7
20260830183037 85 248 0.9 2.6 0.00 0.00 0.00 68 1021.0
20260830181517 85 135 0.9 4.3 0.00 0.00 0.00 70 1021.3
20260830180017 84 0 0.9 3.5 0.00 0.00 0.00 71 1021.6
20260830174537 84 338 0.9 1.7 0.00 0.00 0.00 72 1021.7
20260830173017 84 338 0.9 3.5 0.00 0.00 0.00 69 1021.7
20260830171517 84 68 0.9 3.5 0.00 0.00 0.00 71 1022.1
20260830170017 83 68 0.9 3.5 0.00 0.00 0.00 72 1022.1
20260830164557 83 293 0.9 3.5 0.00 0.00 0.00 72 1022.3
20260830163016 83 293 0.9 2.6 0.00 0.00 0.00 73 1022.4
20260830161517 83 0 0.9 2.6 0.00 0.00 0.00 75 1022.5
20260830160017 82 225 0.9 6.1 0.00 0.00 0.00 75 1022.7
20260830154517 81 0.0 2.6 0.00 0.00 0.00 78 1022.9
20260830153017 80 0.0 1.7 0.00 0.00 0.00 80 1022.9
20260830151516 80 315 0.9 4.3 0.00 0.00 0.00 81 1023.0
20260830150016 78 315 0.9 3.5 0.00 0.00 0.00 82 1022.9
20260830144536 76 113 0.9 2.6 0.00 0.00 0.00 88 1022.9
20260830143016 75 0.0 1.7 0.00 0.00 0.00 93 1022.9
20260830141517 75 0.0 1.7 0.00 0.00 0.00 95 1023.0
20260830140016 75 0.0 1.7 0.00 0.00 0.00 96 1023.0
20260830134516 74 248 0.9 2.6 0.00 0.00 0.00 96 1023.3
20260830133016 73 0.0 0.0 0.00 0.00 0.00 96 1023.7